FW1737 Weather Reports


time (UTC)temp
F
wind
direction
speed
knots
gust
knots
rain 1hr
in
rain 24hr
in
rain mn
in
humidity
%
barometer
mb
20260507220019 52 206 1.7 7.8 0.00 0.89 0.89 99 1001.6
20260507214523 53 124 1.7 7.8 0.00 0.89 0.89 99 1001.5
20260507213019 53 211 3.5 6.1 0.00 0.89 0.89 99 1001.6
20260507211517 53 204 5.2 9.6 0.00 0.89 0.89 99 1001.8
20260507210017 54 244 3.5 6.1 0.01 0.89 0.89 99 1001.9
20260507204516 53 180 0.9 7.0 0.02 0.89 0.89 100 1001.2
20260507203016 53 126 2.6 6.1 0.05 0.89 0.89 100 1000.8
20260507201513 53 102 1.7 4.3 0.08 0.89 0.89 99 1001.1
20260507200013 53 96 2.6 7.0 0.12 0.88 0.88 100 1001.2
20260507194511 53 88 0.0 2.6 0.19 0.87 0.87 100 1002.2
20260507193008 53 83 1.7 4.3 0.24 0.84 0.84 100 1002.0
20260507191506 53 96 0.9 4.3 0.27 0.81 0.81 100 1002.5
20260507190003 53 223 2.6 6.1 0.31 0.75 0.75 100 1003.2
20260507184501 53 213 2.6 7.0 0.35 0.68 0.68 99 1003.4
20260507183100 52 211 3.5 8.7 0.48 0.60 0.60 99 1003.9
20260507181558 52 183 2.6 7.8 0.50 0.54 0.54 99 1004.0
20260507180057 52 203 1.7 4.3 0.43 0.45 0.45 99 1004.4
20260507174606 52 200 6.1 9.6 0.34 0.34 0.34 98 1004.7
20260507173055 52 173 5.2 13.9 0.12 0.12 0.12 98 1004.7
20260507171603 53 183 7.8 14.8 0.04 0.04 0.04 98 1003.9
20260507170053 53 193 7.0 14.8 0.02 0.02 0.02 98 1004.0
20260507164550 53 184 6.1 13.0 0.00 0.00 0.00 98 1004.5
20260507163048 53 175 7.0 11.3 0.00 0.00 0.00 97 1004.8
20260507161545 53 190 8.7 17.4 0.00 0.00 0.00 95 1005.5
20260507160046 54 170 7.0 19.1 0.00 0.00 0.00 95 1005.6
20260507154540 54 163 7.0 18.2 0.00 0.00 0.00 95 1006.2
20260507153038 54 179 11.3 18.2 0.00 0.00 0.00 95 1006.2
20260507151537 55 167 8.7 20.9 0.00 0.00 0.00 94 1006.9
20260507150034 56 217 9.6 18.2 0.00 0.00 0.00 92 1007.2
20260507144546 56 209 11.3 19.1 0.00 0.00 0.00 92 1007.3
20260507143029 56 238 11.3 22.6 0.00 0.00 0.00 94 1007.4
20260507141527 56 212 8.7 20.0 0.00 0.00 0.00 94 1007.8
20260507140024 55 190 10.4 21.7 0.00 0.00 0.00 94 1007.9
20260507134527 55 227 13.0 20.9 0.00 0.00 0.00 93 1008.2
20260507133023 56 221 12.2 21.7 0.00 0.00 0.00 94 1008.3
20260507131521 55 177 7.0 20.9 0.00 0.00 0.00 95 1008.4
20260507130020 55 148 11.3 24.3 0.00 0.00 0.00 95 1008.5
20260507124521 55 176 10.4 21.7 0.00 0.00 0.00 95 1008.8
20260507123017 55 186 9.6 22.6 0.00 0.00 0.00 95 1008.6
20260507121515 55 205 13.9 26.1 0.00 0.00 0.00 95 1008.3
20260507120013 55 177 12.2 21.7 0.00 0.00 0.00 96 1008.4
20260507114509 54 181 13.9 25.2 0.00 0.00 0.00 97 1008.7
20260507113012 54 227 8.7 18.2 0.00 0.00 0.00 97 1009.3
20260507111506 54 167 8.7 21.7 0.00 0.00 0.00 98 1009.3
20260507110003 54 165 7.8 13.9 0.00 0.00 0.00 98 1009.4
20260507104611 53 209 11.3 20.0 0.00 0.00 0.00 98 1009.8
20260507103113 54 208 7.8 19.1 0.00 0.00 0.00 98 1009.9
20260507101556 53 140 5.2 11.3 0.00 0.00 0.00 98 1009.7
20260507100055 53 121 4.3 11.3 0.00 0.00 0.00 98 1010.5
20260507094554 53 159 4.3 10.4 0.00 0.00 0.00 98 1010.7
20260507093058 53 190 6.1 13.9 0.00 0.00 0.00 98 1010.8
20260507091556 53 166 5.2 10.4 0.00 0.00 0.00 99 1010.6
20260507090049 52 144 4.3 14.8 0.00 0.00 0.00 99 1010.8
20260507084547 53 195 5.2 8.7 0.00 0.00 0.00 99 1011.1
20260507083048 53 167 5.2 8.7 0.00 0.00 0.00 99 1011.5
20260507081544 53 222 2.6 9.6 0.00 0.00 0.00 98 1011.5
20260507080045 52 151 1.7 8.7 0.00 0.00 0.00 98 1011.5
20260507074542 52 128 4.3 8.7 0.00 0.00 0.00 98 1011.5
20260507073039 52 158 3.5 7.0 0.00 0.00 0.00 98 1011.9
20260507071637 52 117 1.7 9.6 0.00 0.00 0.00 97 1012.1
20260507070036 52 102 2.6 5.2 0.00 0.00 0.00 97 1012.8
20260507064534 52 207 1.7 9.6 0.00 0.00 0.00 98 1012.9
20260507063035 51 138 0.0 2.6 0.00 0.00 0.00 98 1012.9
20260507061531 51 126 1.7 7.0 0.00 0.00 0.00 99 1013.0
20260507060038 50 169 4.3 7.8 0.00 0.00 0.00 100 1013.0
20260507054524 49 222 0.0 0.0 0.00 0.00 0.00 98 1013.4
20260507053023 49 222 0.0 0.0 0.00 0.00 0.00 97 1013.6
20260507051520 49 222 0.0 0.0 0.00 0.00 0.00 97 1014.2
20260507050018 49 222 0.0 0.0 0.00 0.00 0.00 97 1014.6
20260507044533 49 222 0.0 0.0 0.00 0.00 0.00 97 1014.8
20260507043014 49 222 0.0 0.0 0.00 0.00 0.00 97 1015.2
20260507041512 49 222 0.0 0.0 0.00 0.00 0.00 96 1015.5
20260507040009 49 222 0.0 0.0 0.00 0.00 0.00 96 1015.8
20260507034506 49 222 0.0 2.6 0.00 0.00 0.00 96 1016.0
20260507033004 50 222 0.9 2.6 0.00 0.00 0.00 96 1016.2
20260507031601 50 222 0.9 2.6 0.00 0.00 0.00 95 1016.6
20260507024559 51 222 0.0 0.0 0.00 0.00 0.00 93 1016.8
20260507023054 51 222 0.0 2.6 0.00 0.00 0.00 93 1016.8
20260507021550 52 213 0.0 0.0 0.00 0.00 0.00 91 1017.0
20260507020051 53 212 0.0 3.5 0.00 0.00 0.00 91 1017.1
20260507014547 53 215 0.0 2.6 0.00 0.00 0.00 91 1017.2
20260507013057 54 170 0.9 6.1 0.00 0.00 0.00 90 1017.3
20260507011545 54 148 3.5 6.1 0.00 0.00 0.00 89 1017.4
20260507010045 54 143 2.6 6.1 0.00 0.00 0.00 89 1017.4
20260507004541 55 200 4.3 8.7 0.00 0.00 0.00 88 1017.4
20260507003042 55 180 3.5 9.6 0.00 0.00 0.00 87 1017.5
20260507001542 55 202 3.5 7.0 0.00 0.00 0.00 87 1017.5
20260507000040 55 186 2.6 7.0 0.00 0.00 0.00 86 1017.5
20260506234540 55 189 1.7 8.7 0.00 0.00 0.00 86 1017.6
20260506233037 55 195 2.6 8.7 0.00 0.00 0.00 85 1017.3
20260506231535 55 211 6.1 9.6 0.00 0.00 0.00 85 1017.1
20260506230033 56 205 5.2 12.2 0.00 0.00 0.00 83 1017.1
20260506224532 56 206 7.0 9.6 0.00 0.00 0.00 82 1016.8
20260506223032 57 188 5.2 14.8 0.00 0.00 0.00 80 1016.7
20260506221529 58 171 7.0 13.0 0.00 0.00 0.00 79 1016.7